SWR16U LSGG-EGKK

Flight info

Callsign SWR16U
Flight time 1h 5m
Altitude 28000
Route DIPIR T37 IBABA DCT TUTAX DCT OBURO DCT OKRIX DCT CLM DCT KOPOR DCT KESAX DCT KUNAV
Aircraft B77W/H-SDE1E2E3FGHIJ2J3J4J5M1RWXY/LB1D1

Departure

Time 2026-05-04 14:40
Airport Geneva International Airport (LSGG)

Arrival

Time 2026-05-04 15:45
Airport London Gatwick Airport (EGKK)
Time Latitude Longitude Altitude Speed Heading
2026-05-04 14:01 46.22762 6.09922 1420 ft 0 kts 136°
2026-05-04 14:27 46.22762 6.09921 1417 ft 1 kts 136°
2026-05-04 14:27 46.22780 6.09896 1420 ft 4 kts 135°
2026-05-04 14:27 46.22799 6.09869 1418 ft 4 kts 135°
2026-05-04 14:28 46.22817 6.09845 1418 ft 4 kts 130°
2026-05-04 14:28 46.22829 6.09819 1419 ft 4 kts 99°
2026-05-04 14:28 46.22828 6.09794 1421 ft 4 kts 57°
2026-05-04 14:28 46.22811 6.09767 1420 ft 4 kts 42°
2026-05-04 14:29 46.22802 6.09754 1420 ft 0 kts 44°
2026-05-04 14:34 46.22808 6.09763 1420 ft 9 kts 44°
2026-05-04 14:34 46.22904 6.09903 1421 ft 23 kts 45°
2026-05-04 14:34 46.23014 6.10066 1419 ft 23 kts 46°
2026-05-04 14:34 46.23124 6.10233 1419 ft 23 kts 47°
2026-05-04 14:35 46.23232 6.10399 1419 ft 23 kts 44°
2026-05-04 14:35 46.23338 6.10551 1418 ft 20 kts 45°
2026-05-04 14:35 46.23441 6.10691 1415 ft 20 kts 44°
2026-05-04 14:35 46.23540 6.10837 1409 ft 23 kts 45°
2026-05-04 14:36 46.23681 6.11044 1409 ft 30 kts 46°
2026-05-04 14:36 46.23826 6.11258 1406 ft 30 kts 45°
2026-05-04 14:36 46.23972 6.11473 1407 ft 30 kts 45°
2026-05-04 14:36 46.24120 6.11687 1403 ft 32 kts 45°
2026-05-04 14:37 46.24319 6.11975 1383 ft 44 kts 46°
2026-05-04 14:37 46.24518 6.12274 1383 ft 40 kts 44°
2026-05-04 14:37 46.24708 6.12550 1375 ft 38 kts 45°
2026-05-04 14:37 46.24843 6.12694 1373 ft 15 kts 15°
2026-05-04 14:38 46.24959 6.12717 1373 ft 14 kts 341°
2026-05-04 14:38 46.24984 6.12628 1376 ft 11 kts 247°
2026-05-04 14:38 46.24936 6.12546 1375 ft 11 kts 225°
2026-05-04 14:38 46.24884 6.12472 1378 ft 11 kts 225°
2026-05-04 14:39 46.24796 6.12345 1378 ft 43 kts 225°
2026-05-04 14:39 46.24391 6.11748 1403 ft 122 kts 225°
2026-05-04 14:39 46.23654 6.10634 1448 ft 176 kts 227°
2026-05-04 14:40 46.21955 6.08197 3148 ft 176 kts 227°
2026-05-04 14:40 46.21388 6.06556 3498 ft 199 kts 266°
2026-05-04 14:40 46.21849 6.04552 3750 ft 229 kts 308°
2026-05-04 14:40 46.23094 6.02943 4106 ft 251 kts 320°
2026-05-04 14:41 46.24478 6.01354 4841 ft 261 kts 319°
2026-05-04 14:41 46.25920 5.99656 5546 ft 271 kts 317°
2026-05-04 14:41 46.28883 5.96022 7211 ft 287 kts 317°
2026-05-04 14:42 46.31972 5.92505 9011 ft 288 kts 320°
2026-05-04 14:42 46.33588 5.90724 9438 ft 294 kts 319°
2026-05-04 14:42 46.35182 5.88958 10083 ft 287 kts 320°
2026-05-04 14:43 46.36757 5.87180 10909 ft 290 kts 318°
2026-05-04 14:43 46.38378 5.85325 11623 ft 300 kts 319°
2026-05-04 14:43 46.40063 5.83478 12418 ft 306 kts 320°
2026-05-04 14:43 46.41755 5.81657 13131 ft 311 kts 320°
2026-05-04 14:44 46.43576 5.79854 13837 ft 318 kts 324°
2026-05-04 14:44 46.45498 5.78226 14590 ft 315 kts 327°
2026-05-04 14:44 46.47413 5.76713 15363 ft 323 kts 328°
2026-05-04 14:44 46.49401 5.75040 15451 ft 332 kts 318°
2026-05-04 14:45 46.50539 5.73564 15277 ft 328 kts 312°
2026-05-04 14:45 46.52279 5.71441 15328 ft 336 kts 321°
2026-05-04 14:45 46.54341 5.69510 15533 ft 366 kts 326°
2026-05-04 14:45 46.56660 5.67578 15751 ft 396 kts 328°
2026-05-04 14:46 46.59086 5.65629 16332 ft 410 kts 328°
2026-05-04 14:46 46.61620 5.63598 17182 ft 419 kts 328°
2026-05-04 14:46 46.64197 5.61510 18127 ft 425 kts 327°
2026-05-04 14:46 46.66789 5.59396 19003 ft 429 kts 327°
2026-05-04 14:47 46.69401 5.57272 19823 ft 435 kts 327°
2026-05-04 14:47 46.72081 5.55108 20633 ft 441 kts 327°
2026-05-04 14:47 46.74762 5.52940 21403 ft 447 kts 327°
2026-05-04 14:47 46.77474 5.50691 22172 ft 453 kts 326°
2026-05-04 14:48 46.80230 5.48372 22942 ft 459 kts 326°
2026-05-04 14:48 46.83027 5.46020 23673 ft 465 kts 326°
2026-05-04 14:48 46.85704 5.43299 24202 ft 465 kts 314°
2026-05-04 14:48 46.87835 5.39826 24800 ft 463 kts 301°
2026-05-04 14:49 46.89449 5.35764 25475 ft 458 kts 288°
2026-05-04 14:49 46.90519 5.31466 26294 ft 453 kts 284°
2026-05-04 14:49 46.91771 5.27192 27185 ft 457 kts 293°
2026-05-04 14:49 46.93498 5.23237 27922 ft 465 kts 302°
2026-05-04 14:50 46.95641 5.19662 27991 ft 471 kts 312°
2026-05-04 14:50 46.98076 5.16444 28027 ft 469 kts 314°
2026-05-04 14:50 47.03000 5.10143 28013 ft 470 kts 314°
2026-05-04 14:51 47.05439 5.06994 27999 ft 471 kts 314°
2026-05-04 14:51 47.07898 5.03780 28002 ft 471 kts 314°
2026-05-04 14:51 47.10245 5.00682 28000 ft 472 kts 314°
2026-05-04 14:51 47.12690 4.97435 27998 ft 472 kts 313°
2026-05-04 14:52 47.15100 4.94223 28000 ft 472 kts 313°
2026-05-04 14:52 47.17542 4.90961 28000 ft 471 kts 313°
2026-05-04 14:52 47.19954 4.87735 27998 ft 471 kts 313°
2026-05-04 14:52 47.22405 4.84453 27995 ft 470 kts 313°
2026-05-04 14:53 47.24793 4.81253 27990 ft 470 kts 313°
2026-05-04 14:53 47.27221 4.77998 27986 ft 469 kts 313°
2026-05-04 14:53 47.29608 4.74792 27989 ft 468 kts 313°
2026-05-04 14:53 47.32016 4.71557 27985 ft 467 kts 313°
2026-05-04 14:54 47.34397 4.68350 27977 ft 467 kts 313°
2026-05-04 14:54 47.36815 4.65090 27975 ft 466 kts 313°
2026-05-04 14:54 47.39194 4.61880 27966 ft 465 kts 313°
2026-05-04 14:54 47.41571 4.58666 27969 ft 465 kts 313°
2026-05-04 14:55 47.43952 4.55444 27962 ft 465 kts 313°
2026-05-04 14:55 47.46351 4.52193 27964 ft 465 kts 313°
2026-05-04 14:55 47.48717 4.48984 27965 ft 465 kts 313°
2026-05-04 14:55 47.51110 4.45732 27945 ft 465 kts 313°
2026-05-04 14:56 47.53475 4.42514 27947 ft 465 kts 313°
2026-05-04 14:56 47.55863 4.39260 27970 ft 464 kts 313°
2026-05-04 14:56 47.58213 4.36056 27953 ft 465 kts 313°
2026-05-04 14:56 47.60606 4.32789 27951 ft 465 kts 313°
2026-05-04 14:57 47.62993 4.29520 27942 ft 465 kts 312°
2026-05-04 14:57 47.65230 4.26082 27952 ft 461 kts 307°
2026-05-04 14:57 47.68979 4.18550 27941 ft 454 kts 299°
2026-05-04 14:58 47.70729 4.14620 27947 ft 454 kts 298°
2026-05-04 14:58 47.72464 4.10689 27953 ft 454 kts 298°
2026-05-04 14:58 47.74190 4.06797 27955 ft 455 kts 299°
2026-05-04 14:58 47.75944 4.02871 27955 ft 455 kts 299°
2026-05-04 14:59 47.77707 3.98947 27958 ft 455 kts 299°
2026-05-04 14:59 47.79456 3.95065 27949 ft 456 kts 299°
2026-05-04 14:59 47.82998 3.87210 27939 ft 455 kts 299°
2026-05-04 15:00 47.84768 3.83275 27943 ft 455 kts 299°
2026-05-04 15:00 47.86516 3.79381 27939 ft 454 kts 299°
2026-05-04 15:00 47.88278 3.75450 27937 ft 454 kts 299°
2026-05-04 15:01 47.91749 3.67689 27940 ft 453 kts 299°
2026-05-04 15:01 47.93502 3.63763 27939 ft 452 kts 299°
2026-05-04 15:01 47.95394 3.59981 27937 ft 457 kts 308°
2026-05-04 15:01 47.97774 3.56748 27935 ft 463 kts 319°
2026-05-04 15:02 48.00469 3.54201 27938 ft 468 kts 330°
2026-05-04 15:02 48.03539 3.52353 27965 ft 472 kts 338°
2026-05-04 15:02 48.06589 3.50724 27948 ft 473 kts 336°
2026-05-04 15:02 48.09639 3.48899 27952 ft 472 kts 334°
2026-05-04 15:03 48.12658 3.46991 27940 ft 472 kts 333°
2026-05-04 15:03 48.15645 3.45072 27950 ft 472 kts 333°
2026-05-04 15:03 48.18676 3.43129 27940 ft 472 kts 334°
2026-05-04 15:03 48.21693 3.41210 27940 ft 471 kts 334°
2026-05-04 15:04 48.24711 3.39304 27937 ft 470 kts 334°
2026-05-04 15:04 48.27723 3.37411 27935 ft 470 kts 334°
2026-05-04 15:04 48.30737 3.35521 27938 ft 469 kts 334°
2026-05-04 15:04 48.33750 3.33632 27936 ft 468 kts 334°
2026-05-04 15:05 48.36764 3.31740 27935 ft 467 kts 334°
2026-05-04 15:05 48.39732 3.29873 27940 ft 467 kts 334°
2026-05-04 15:05 48.42746 3.27975 27948 ft 467 kts 334°
2026-05-04 15:05 48.45725 3.26095 27947 ft 467 kts 334°
2026-05-04 15:06 48.48712 3.24207 27954 ft 467 kts 334°
2026-05-04 15:06 48.51727 3.22299 27948 ft 467 kts 334°
2026-05-04 15:06 48.54736 3.20393 27948 ft 467 kts 334°
2026-05-04 15:07 48.60719 3.16594 27944 ft 467 kts 334°
2026-05-04 15:07 48.63697 3.14701 27951 ft 467 kts 334°
2026-05-04 15:07 48.66695 3.12792 27949 ft 467 kts 334°
2026-05-04 15:07 48.69693 3.10880 27953 ft 467 kts 334°
2026-05-04 15:08 48.72695 3.08963 27948 ft 467 kts 334°
2026-05-04 15:08 48.75716 3.07032 27943 ft 467 kts 334°
2026-05-04 15:08 48.78715 3.05113 27947 ft 467 kts 334°
2026-05-04 15:08 48.81702 3.03198 27939 ft 467 kts 334°
2026-05-04 15:09 48.84659 3.01240 27958 ft 466 kts 332°
2026-05-04 15:09 48.87536 2.98908 27956 ft 464 kts 327°
2026-05-04 15:09 48.90256 2.96525 27943 ft 464 kts 327°
2026-05-04 15:10 48.95896 2.91491 27965 ft 464 kts 327°
2026-05-04 15:10 48.98680 2.89013 27993 ft 465 kts 327°
2026-05-04 15:10 49.04291 2.84050 27957 ft 466 kts 327°
2026-05-04 15:11 49.07085 2.81587 27986 ft 466 kts 327°
2026-05-04 15:11 49.09875 2.79126 27932 ft 467 kts 327°
2026-05-04 15:11 49.12679 2.76652 27953 ft 464 kts 327°
2026-05-04 15:11 49.15482 2.74175 27952 ft 462 kts 327°
2026-05-04 15:12 49.18239 2.71734 27954 ft 460 kts 327°
2026-05-04 15:12 49.21023 2.69265 27960 ft 460 kts 327°
2026-05-04 15:12 49.23801 2.66797 27959 ft 459 kts 327°
2026-05-04 15:12 49.26532 2.64367 27960 ft 460 kts 327°
2026-05-04 15:13 49.29310 2.61892 27959 ft 460 kts 327°
2026-05-04 15:13 49.32069 2.59432 27956 ft 461 kts 327°
2026-05-04 15:13 49.34863 2.56937 27955 ft 461 kts 327°
2026-05-04 15:13 49.37629 2.54463 27958 ft 462 kts 327°
2026-05-04 15:14 49.40421 2.51964 27952 ft 463 kts 327°
2026-05-04 15:14 49.43193 2.49478 27953 ft 463 kts 327°
2026-05-04 15:14 49.45971 2.46986 27947 ft 464 kts 327°
2026-05-04 15:14 49.48746 2.44492 27950 ft 464 kts 327°
2026-05-04 15:15 49.51489 2.41858 27945 ft 462 kts 323°
2026-05-04 15:15 49.54019 2.38841 27940 ft 460 kts 317°
2026-05-04 15:15 49.56431 2.35640 27950 ft 459 kts 316°
2026-05-04 15:16 49.61246 2.29142 27946 ft 459 kts 316°
2026-05-04 15:16 49.63638 2.25922 27943 ft 459 kts 316°
2026-05-04 15:16 49.68474 2.19451 27944 ft 458 kts 317°
2026-05-04 15:17 49.70892 2.16224 27946 ft 458 kts 317°
2026-05-04 15:17 49.75710 2.09789 27944 ft 458 kts 317°
2026-05-04 15:17 49.78122 2.06560 27948 ft 458 kts 317°
2026-05-04 15:18 49.80548 2.03308 27945 ft 458 kts 317°
2026-05-04 15:18 49.82953 2.00078 27947 ft 458 kts 317°
2026-05-04 15:18 49.85321 1.96894 27947 ft 458 kts 317°
2026-05-04 15:19 49.90158 1.90377 27948 ft 458 kts 317°
2026-05-04 15:19 49.92548 1.87149 27949 ft 458 kts 317°
2026-05-04 15:19 49.97369 1.80626 27956 ft 458 kts 317°
2026-05-04 15:20 49.99755 1.77390 27955 ft 459 kts 317°
2026-05-04 15:20 50.02138 1.74154 27955 ft 459 kts 317°
2026-05-04 15:20 50.04573 1.70844 27957 ft 459 kts 317°
2026-05-04 15:20 50.06961 1.67594 27957 ft 459 kts 317°
2026-05-04 15:21 50.09359 1.64336 27920 ft 457 kts 317°
2026-05-04 15:21 50.11764 1.61079 27691 ft 453 kts 317°
2026-05-04 15:21 50.16519 1.54635 26951 ft 451 kts 317°
2026-05-04 15:22 50.18868 1.51443 26610 ft 449 kts 317°
2026-05-04 15:22 50.21222 1.48239 26314 ft 446 kts 317°
2026-05-04 15:22 50.25872 1.41894 25751 ft 442 kts 316°
2026-05-04 15:23 50.28159 1.38767 25462 ft 440 kts 316°
2026-05-04 15:23 50.30478 1.35591 25169 ft 438 kts 316°
2026-05-04 15:23 50.32742 1.32487 24865 ft 436 kts 316°
2026-05-04 15:23 50.34999 1.29387 24366 ft 435 kts 316°
2026-05-04 15:24 50.39549 1.23127 23252 ft 429 kts 316°
2026-05-04 15:24 50.43985 1.17007 22116 ft 421 kts 317°
2026-05-04 15:25 50.46159 1.14002 21615 ft 417 kts 317°
2026-05-04 15:25 50.48328 1.11001 21092 ft 413 kts 317°
2026-05-04 15:25 50.50457 1.08051 20573 ft 409 kts 317°
2026-05-04 15:26 50.54513 1.01814 19551 ft 402 kts 311°
2026-05-04 15:26 50.56370 0.98589 19057 ft 399 kts 311°
2026-05-04 15:26 50.60070 0.92162 18021 ft 394 kts 312°
2026-05-04 15:27 50.61937 0.88973 17450 ft 391 kts 312°
2026-05-04 15:27 50.65598 0.82761 16439 ft 385 kts 312°
2026-05-04 15:28 50.69145 0.76521 15519 ft 390 kts 309°
2026-05-04 15:28 50.70818 0.73231 14870 ft 372 kts 307°
2026-05-04 15:28 50.73890 0.67069 13863 ft 354 kts 308°
2026-05-04 15:29 50.74931 0.64998 13497 ft 360 kts 308°
2026-05-04 15:30 50.81103 0.52829 11425 ft 328 kts 308°
2026-05-04 15:30 50.85014 0.45111 10119 ft 273 kts 308°
2026-05-04 15:31 50.87330 0.40527 9370 ft 276 kts 308°
2026-05-04 15:31 50.88562 0.38084 8949 ft 287 kts 308°
2026-05-04 15:32 50.92308 0.30650 7982 ft 284 kts 308°
2026-05-04 15:32 50.94585 0.26120 7424 ft 248 kts 308°
2026-05-04 15:33 50.96668 0.21914 7037 ft 243 kts 308°
2026-05-04 15:34 50.99783 0.15603 6990 ft 241 kts 308°
2026-05-04 15:34 51.00813 0.13517 6935 ft 240 kts 308°
2026-05-04 15:34 51.01915 0.08728 6300 ft 238 kts 273°
2026-05-04 15:35 51.02102 0.03478 5682 ft 237 kts 275°
2026-05-04 15:35 51.02204 0.00846 5391 ft 236 kts 275°
2026-05-04 15:35 51.02307 -0.01736 5100 ft 236 kts 275°
2026-05-04 15:36 51.02520 -0.06913 4527 ft 235 kts 275°
2026-05-04 15:36 51.02627 -0.09490 4250 ft 234 kts 275°
2026-05-04 15:36 51.02735 -0.12089 3972 ft 234 kts 275°
2026-05-04 15:37 51.02840 -0.14639 3709 ft 233 kts 275°
2026-05-04 15:37 51.02947 -0.17180 3458 ft 231 kts 275°
2026-05-04 15:37 51.03054 -0.19727 3361 ft 225 kts 275°
2026-05-04 15:37 51.03156 -0.22175 3302 ft 223 kts 275°
2026-05-04 15:38 51.03259 -0.24628 3219 ft 217 kts 275°
2026-05-04 15:38 51.03357 -0.27046 3161 ft 204 kts 275°
2026-05-04 15:38 51.03448 -0.29281 3120 ft 207 kts 275°
2026-05-04 15:38 51.03540 -0.31548 3053 ft 203 kts 275°
2026-05-04 15:39 51.03628 -0.33740 2994 ft 193 kts 275°
2026-05-04 15:39 51.03715 -0.35861 2999 ft 192 kts 275°
2026-05-04 15:39 51.04531 -0.39680 3004 ft 193 kts 328°
2026-05-04 15:40 51.05721 -0.40655 3033 ft 190 kts 334°
2026-05-04 15:40 51.06854 -0.41627 2998 ft 189 kts 332°
2026-05-04 15:40 51.08003 -0.42658 2991 ft 182 kts 331°
2026-05-04 15:40 51.09117 -0.43538 2977 ft 174 kts 348°
2026-05-04 15:41 51.10264 -0.43315 3007 ft 172 kts 31°
2026-05-04 15:41 51.11048 -0.41857 2960 ft 180 kts 60°
2026-05-04 15:41 51.11608 -0.40075 2692 ft 179 kts 67°
2026-05-04 15:41 51.12020 -0.38258 2469 ft 168 kts 70°
2026-05-04 15:42 51.12361 -0.36564 2231 ft 151 kts 75°
2026-05-04 15:42 51.12595 -0.35055 2041 ft 134 kts 77°
2026-05-04 15:42 51.12811 -0.33536 1883 ft 145 kts 77°
2026-05-04 15:42 51.13027 -0.31979 1679 ft 143 kts 78°
2026-05-04 15:43 51.13238 -0.30451 1477 ft 140 kts 78°
2026-05-04 15:43 51.13446 -0.28932 1303 ft 140 kts 77°
2026-05-04 15:43 51.13652 -0.27429 1107 ft 138 kts 78°
2026-05-04 15:43 51.13856 -0.25949 943 ft 136 kts 77°
2026-05-04 15:44 51.14056 -0.24481 743 ft 136 kts 77°
2026-05-04 15:44 51.14257 -0.23010 489 ft 135 kts 77°
2026-05-04 15:44 51.14458 -0.21561 320 ft 130 kts 77°
2026-05-04 15:44 51.14650 -0.20203 218 ft 123 kts 76°
2026-05-04 15:45 51.14803 -0.19088 217 ft 78 kts 77°
2026-05-04 15:45 51.14880 -0.18532 213 ft 24 kts 78°
2026-05-04 15:45 51.14888 -0.18467 217 ft 7 kts 78°
2026-05-04 15:45 51.14905 -0.18334 213 ft 13 kts 78°
2026-05-04 15:46 51.14930 -0.18165 219 ft 24 kts 75°
2026-05-04 15:46 51.14998 -0.17917 222 ft 24 kts 60°
2026-05-04 15:46 51.15068 -0.17779 218 ft 0 kts 33°
2026-05-04 15:46 51.15068 -0.17778 218 ft 0 kts 33°
2026-05-04 15:47 51.15069 -0.17778 218 ft 1 kts 32°
2026-05-04 15:48 51.15116 -0.17752 217 ft 10 kts
2026-05-04 15:48 51.15188 -0.17766 212 ft 11 kts 352°
2026-05-04 15:48 51.15254 -0.17847 216 ft 9 kts 255°
2026-05-04 15:49 51.15226 -0.17982 216 ft 16 kts 252°
2026-05-04 15:49 51.15236 -0.18064 220 ft 7 kts 317°
2026-05-04 15:49 51.15297 -0.18104 211 ft 11 kts 343°
2026-05-04 15:49 51.15370 -0.18135 219 ft 11 kts 346°
2026-05-04 15:50 51.15453 -0.18172 218 ft 15 kts 343°
2026-05-04 15:50 51.15555 -0.18210 215 ft 14 kts 347°
2026-05-04 15:50 51.15647 -0.18193 217 ft 12 kts 22°
2026-05-04 15:50 51.15725 -0.18170 215 ft 12 kts 355°
2026-05-04 15:51 51.15803 -0.18193 213 ft 10 kts 348°
2026-05-04 15:51 51.15872 -0.18216 212 ft 10 kts 348°
2026-05-04 15:51 51.15898 -0.18224 212 ft 1 kts 348°
2026-05-04 15:51 51.15925 -0.18234 219 ft 6 kts 348°
2026-05-04 15:52 51.15944 -0.18240 215 ft 0 kts 348°
2026-05-04 15:52 51.15966 -0.18245 215 ft 6 kts 354°
2026-05-04 15:52 51.16002 -0.18226 209 ft 6 kts 41°
2026-05-04 15:52 51.16015 -0.18204 217 ft 2 kts 46°
2026-05-04 15:53 51.16042 -0.18171 218 ft 7 kts 25°
2026-05-04 15:53 51.16089 -0.18156 218 ft 7 kts 13°
2026-05-04 15:53 51.16129 -0.18109 215 ft 8 kts 54°
2026-05-04 15:53 51.16137 -0.18085 219 ft 0 kts 68°
2026-05-04 15:54 51.16140 -0.18070 215 ft 5 kts 68°
2026-05-04 15:54 51.16143 -0.18058 212 ft 0 kts 71°
2026-05-04 15:54 51.16144 -0.18048 214 ft 0 kts 76°
2026-05-04 15:54 51.16145 -0.18043 213 ft 4 kts 76°
2026-05-04 15:55 51.16144 -0.18056 212 ft 3 kts 73°
2026-05-04 15:55 51.16147 -0.18039 212 ft 4 kts 75°
2026-05-04 15:55 51.16141 -0.18078 216 ft 0 kts 77°
2026-05-04 15:55 51.16144 -0.18062 213 ft 1 kts 75°
2026-05-04 15:56 51.16145 -0.18053 211 ft 0 kts 76°
2026-05-04 15:56 51.16145 -0.18056 212 ft 0 kts 78°